EW1884 Weather Reports


time (UTC)temp
C
wind
direction
speed
KPH
gust
KPH
rain 1hr
cm
rain 24hr
cm
rain mn
cm
humidity
%
barometer
mb
20260508122517 13 0 4.8 12.9 0.00 0.00 0.00 44 1019.6
20260508121517 13 0 3.2 9.7 0.00 0.03 0.00 44 1019.7
20260508120558 13 0 1.6 6.4 0.00 0.05 0.00 44 1019.8
20260508115537 13 0 3.2 12.9 0.00 0.05 0.00 41 1019.8
20260508114517 14 0 4.8 9.7 0.00 0.05 0.00 43 1019.8
20260508113537 13 0 6.4 14.5 0.00 0.05 0.00 41 1019.9
20260508112517 13 0 1.6 9.7 0.00 0.05 0.00 45 1019.9
20260508111517 13 0 3.2 9.7 0.00 0.05 0.00 44 1020.0
20260508110517 12 0 1.6 8.0 0.00 0.05 0.00 46 1020.0
20260508105517 12 0 3.2 12.9 0.00 0.05 0.00 47 1020.0
20260508104517 11 0 8.0 16.1 0.00 0.05 0.00 47 1020.0
20260508103517 11 0 8.0 17.7 0.00 0.05 0.00 47 1020.0
20260508102517 11 0 8.0 19.3 0.00 0.05 0.00 47 1020.0
20260508101517 11 0 9.7 20.9 0.00 0.05 0.00 45 1019.8
20260508100517 11 0 6.4 14.5 0.00 0.05 0.00 45 1019.9
20260508095517 11 0 4.8 12.9 0.00 0.08 0.00 49 1020.0
20260508094517 10 0 8.0 16.1 0.00 0.08 0.00 49 1019.8
20260508093517 10 0 3.2 8.0 0.00 0.08 0.00 52 1019.9
20260508092517 10 0 4.8 16.1 0.00 0.10 0.00 53 1020.0
20260508091517 10 0 6.4 17.7 0.00 0.10 0.00 52 1019.9
20260508090517 9 0 12.9 22.5 0.00 0.10 0.00 50 1020.2
20260508085517 9 0 12.9 20.9 0.00 0.10 0.00 51 1020.3
20260508084517 10 0 8.0 14.5 0.00 0.10 0.00 50 1020.1
20260508083517 9 0 9.7 14.5 0.00 0.10 0.00 52 1020.4
20260508082517 9 0 9.7 20.9 0.00 0.10 0.00 53 1020.4
20260508081517 8 0 11.3 29.0 0.00 0.10 0.00 55 1020.5
20260508080518 8 0 11.3 20.9 0.00 0.10 0.00 55 1020.5
20260508075517 8 0 6.4 14.5 0.00 0.10 0.00 57 1020.5
20260508074517 8 0 6.4 16.1 0.00 0.10 0.00 57 1020.6
20260508073517 8 0 8.0 17.7 0.00 0.10 0.00 57 1020.6
20260508072519 8 0 9.7 17.7 0.00 0.10 0.00 57 1020.6
20260508071517 7 0 4.8 20.9 0.00 0.10 0.00 59 1020.5
20260508070518 7 0 3.2 9.7 0.00 0.10 0.00 61 1020.5
20260508065518 7 0 1.6 6.4 0.00 0.10 0.00 62 1020.4
20260508064519 7 0 4.8 12.9 0.00 0.10 0.00 62 1020.3
20260508063537 7 0 4.8 16.1 0.00 0.10 0.00 62 1020.4
20260508062517 7 0 4.8 8.0 0.00 0.10 0.00 63 1020.6
20260508061518 7 0 4.8 8.0 0.00 0.10 0.00 64 1020.6
20260508060516 7 0 8.0 19.3 0.00 0.10 0.00 64 1020.6
20260508055516 6 0 6.4 14.5 0.00 0.10 0.00 64 1020.6
20260508054516 6 0 4.8 12.9 0.00 0.10 0.00 65 1020.7
20260508053516 6 0 4.8 19.3 0.00 0.10 0.00 64 1020.7
20260508052536 6 0 3.2 8.0 0.00 0.10 0.00 65 1020.7
20260508051516 6 0 3.2 12.9 0.00 0.10 0.00 65 1020.6
20260508050536 6 0 3.2 6.4 0.00 0.13 0.00 66 1020.6
20260508045516 6 0 3.2 17.7 0.00 0.13 0.00 65 1020.8
20260508044516 6 0 3.2 14.5 0.00 0.15 0.00 64 1020.8
20260508043516 6 0 3.2 19.3 0.00 0.15 0.00 64 1020.9
20260508042516 6 0 3.2 8.0 0.00 0.15 0.00 65 1021.0
20260508041516 5 0 3.2 8.0 0.00 0.18 0.00 66 1021.0
20260508040516 5 0 1.6 4.8 0.00 0.23 0.00 68 1021.1
20260508035516 5 0 1.6 4.8 0.00 0.33 0.00 69 1021.3
20260508034516 5 0 1.6 6.4 0.00 0.38 0.00 71 1021.3
20260508033516 5 0 1.6 4.8 0.00 0.38 0.00 72 1021.5
20260508032516 5 0 1.6 4.8 0.00 0.38 0.00 71 1021.5
20260508031516 5 0 8.0 17.7 0.00 0.38 0.00 70 1021.6
20260508030536 5 0 8.0 16.1 0.00 0.38 0.00 70 1021.5
20260508025536 5 0 6.4 14.5 0.00 0.41 0.00 71 1021.6
20260508024516 5 0 6.4 14.5 0.00 0.41 0.00 72 1021.6
20260508023516 5 0 4.8 9.7 0.00 0.43 0.00 72 1021.6
20260508022516 5 0 4.8 12.9 0.00 0.46 0.00 73 1021.8
20260508021516 5 0 4.8 14.5 0.00 0.48 0.00 74 1021.8
20260508020516 4 0 6.4 12.9 0.00 0.48 0.00 76 1021.8
20260508015556 4 0 4.8 9.7 0.00 0.48 0.00 76 1021.8
20260508014516 4 0 4.8 8.0 0.00 0.48 0.00 76 1021.9
20260508013516 4 0 4.8 8.0 0.00 0.51 0.00 76 1022.1
20260508012517 5 0 4.8 9.7 0.00 0.51 0.00 75 1022.0
20260508011517 5 0 4.8 12.9 0.00 0.53 0.00 74 1022.1
20260508010516 5 0 9.7 17.7 0.00 0.56 0.00 73 1022.1
20260508005516 5 0 9.7 16.1 0.00 0.58 0.00 72 1022.0
20260508004516 5 0 9.7 16.1 0.00 0.61 0.00 73 1022.2
20260508003516 5 0 9.7 16.1 0.00 0.61 0.00 74 1022.3
20260508002515 5 0 9.7 16.1 0.00 0.61 0.00 74 1022.3
20260508001516 5 0 8.0 16.1 0.00 0.61 0.00 75 1022.2
20260508000517 5 0 9.7 16.1 0.00 0.61 0.00 76 1022.3
20260507235518 5 0 9.7 14.5 0.00 0.61 0.00 77 1022.3
20260507234518 5 0 8.0 12.9 0.00 0.61 0.00 77 1022.4
20260507233518 5 0 6.4 9.7 0.00 0.61 0.00 78 1022.4
20260507232519 5 0 6.4 12.9 0.00 0.61 0.00 78 1022.4
20260507231517 5 0 9.7 16.1 0.00 0.61 0.00 79 1022.4
20260507230518 5 0 8.0 12.9 0.00 0.61 0.00 80 1022.4
20260507225517 4 0 8.0 14.5 0.00 0.61 0.00 80 1022.4
20260507224538 4 0 4.8 9.7 0.00 0.61 0.00 81 1022.4
20260507223517 5 0 3.2 6.4 0.00 0.61 0.00 81 1022.4
20260507222517 4 0 4.8 11.3 0.00 0.61 0.00 81 1022.4
20260507221517 4 0 3.2 9.7 0.00 0.61 0.00 81 1022.4
20260507220517 5 0 4.8 9.7 0.00 0.61 0.00 81 1022.3
20260507215516 5 0 3.2 8.0 0.00 0.61 0.61 81 1022.3
20260507214516 5 0 9.7 14.5 0.00 0.61 0.61 81 1022.3
20260507213516 5 0 8.0 12.9 0.00 0.61 0.61 81 1022.2
20260507212516 5 0 6.4 11.3 0.00 0.61 0.61 81 1022.4
20260507211516 5 0 4.8 9.7 0.00 0.61 0.61 81 1022.3
20260507210536 5 0 3.2 6.4 0.00 0.61 0.61 80 1022.1
20260507205516 5 0 3.2 6.4 0.00 0.61 0.61 80 1021.9
20260507204516 5 0 3.2 6.4 0.00 0.61 0.61 79 1022.0
20260507203536 5 0 3.2 4.8 0.00 0.61 0.61 79 1022.0
20260507202516 5 0 3.2 4.8 0.00 0.61 0.61 79 1021.9
20260507201516 5 0 1.6 3.2 0.00 0.61 0.61 79 1021.8
20260507200516 5 0 1.6 3.2 0.00 0.61 0.61 79 1021.9
20260507195536 5 0.0 3.2 0.00 0.61 0.61 79 1021.8
20260507194536 5 0 1.6 3.2 0.00 0.61 0.61 78 1021.8
20260507193516 6 0.0 1.6 0.00 0.61 0.61 77 1021.7
20260507192537 6 0 1.6 4.8 0.00 0.61 0.61 75 1021.6
20260507191516 7 0 3.2 4.8 0.00 0.61 0.61 75 1021.5
20260507190516 7 0 3.2 6.4 0.00 0.61 0.61 76 1021.4
20260507185516 7 0 4.8 8.0 0.00 0.61 0.61 75 1021.5
20260507184516 7 0 3.2 6.4 0.00 0.61 0.61 75 1021.4
20260507183516 7 0 3.2 6.4 0.00 0.61 0.61 75 1021.3
20260507182516 7 0 3.2 6.4 0.00 0.61 0.61 76 1021.3
20260507181516 7 0 4.8 8.0 0.00 0.61 0.61 76 1021.3
20260507180516 7 0 4.8 9.7 0.00 0.61 0.61 77 1021.4
20260507175516 7 0 4.8 9.7 0.00 0.61 0.61 78 1021.3
20260507174516 7 0 6.4 9.7 0.00 0.61 0.61 78 1021.3
20260507173516 7 0 8.0 12.9 0.00 0.61 0.61 77 1021.3
20260507172516 7 0 6.4 9.7 0.00 0.61 0.61 76 1021.1
20260507171516 7 0 6.4 9.7 0.00 0.61 0.61 77 1021.1
20260507170516 7 0 6.4 14.5 0.00 0.61 0.61 77 1021.1
20260507165536 7 0 6.4 12.9 0.00 0.61 0.61 77 1021.1
20260507164516 7 0 8.0 14.5 0.00 0.61 0.61 78 1021.0
20260507163515 7 0 9.7 17.7 0.00 0.61 0.61 77 1021.0
20260507162515 7 0 8.0 12.9 0.00 0.61 0.61 77 1020.8
20260507161535 7 0 9.7 16.1 0.00 0.61 0.61 77 1020.9
20260507160515 7 0 9.7 16.1 0.00 0.61 0.61 75 1021.0
20260507155518 7 0 9.7 16.1 0.00 0.61 0.61 75 1020.9
20260507154537 7 0 9.7 16.1 0.00 0.61 0.61 77 1021.0
20260507153518 7 0 8.0 16.1 0.00 0.61 0.61 76 1020.8
20260507152517 7 0 6.4 9.7 0.00 0.61 0.61 76 1020.8
20260507151538 7 0 9.7 16.1 0.00 0.61 0.61 76 1020.8
20260507150518 7 0 9.7 16.1 0.00 0.61 0.61 78 1020.6
20260507145518 6 0 14.5 24.1 0.00 0.61 0.61 80 1020.6
20260507144517 6 0 8.0 20.9 0.00 0.61 0.61 80 1020.5
20260507143517 7 0 11.3 17.7 0.00 0.61 0.61 83 1020.7
20260507142517 6 0 14.5 22.5 0.00 0.61 0.61 84 1020.5
20260507141518 6 0 20.9 30.6 0.00 0.61 0.61 86 1020.3
20260507140537 5 0 19.3 29.0 0.00 0.61 0.61 86 1020.2
20260507135538 5 0 19.3 29.0 0.00 0.61 0.61 87 1020.1
20260507134518 5 0 25.7 35.4 0.00 0.61 0.61 86 1020.0
20260507133519 6 0 24.1 35.4 0.00 0.61 0.61 87 1019.9
20260507132519 6 0 22.5 32.2 0.00 0.61 0.61 87 1019.9
20260507131520 6 0 19.3 35.4 0.03 0.61 0.61 87 1019.9
20260507130518 6 0 19.3 30.6 0.05 0.61 0.61 87 1019.8
20260507125538 5 0 19.3 30.6 0.05 0.61 0.61 87 1019.6
20260507124517 5 0 14.5 24.1 0.05 0.61 0.61 88 1019.6
20260507123557 5 0 17.7 27.4 0.05 0.61 0.61 89 1019.6